Starlink 30442

operational
NORAD ID: 57868 Int'l Des: 2023-144 Owner: SPXS Country: US Constellation: starlink
LEOCIRCULAR

About Starlink 30442

Description loading...

Live Position

Loading 3D Globe...

Upcoming Passes

Altitude History

Altitude vs Time

uPlot chart will show altitude changes over time

Two-Line Element Set

1 57868U 23144E 25350.76847139 -.00000288 00000-0 -62111-5 0 9994
2 57868 43.0023 18.3071 0001465 284.7870 75.2810 15.02546976125095
Epoch: Dec 16, 2025 • Age: 12 hours

Current Status

Altitude 561.6 km
Velocity 7.58 km/s
Sub-Earth Point -13.86°S, 27.2°E
Launch Date Sep 16, 2023
Age 2.2 years
Type internet

Technical Details

Classification Payload
Mass 730.00 kg
Dry Mass 700.00 kg
Total Mass 730.00 kg
Length 0.30 m
Diameter 4.10 m
Span 29.00 m
Shape Box + pan
Manufacturer SPXS
Bus Type Starlink V2M
Phase Status In Orbit
Owner/State SPXS/US

Large Constellations

Loading constellations...